Stations météo

réclame
Mon MeteoGroup
Culdrose, Grande-Bretagne (3809): Température de l'air & dewpoint: 17.05.2018 21:00:00 - 23.05.2018 21:00:00 (BST)Culdrose, Grande-Bretagne (3809): Vitesse du vent: 17.05.2018 21:00:00 - 23.05.2018 21:00:00 (BST)Culdrose, Grande-Bretagne (3809): Direction du vent: 17.05.2018 21:00:00 - 23.05.2018 21:00:00 (BST)Culdrose, Grande-Bretagne (3809): reduced air pressure: 17.05.2018 21:00:00 - 23.05.2018 21:00:00 (BST)Culdrose, Grande-Bretagne (3809): visibility: 17.05.2018 21:00:00 - 23.05.2018 21:00:00 (BST)Culdrose, Grande-Bretagne (3809): Quantités de précipitations: 17.05.2018 21:00:00 - 23.05.2018 21:00:00 (BST)
Date & Time tt [°C] td [°C] ff [km/h] ff [knt] dd ppp [hPa] vv [km] rr [mm]
23.05.2018 21:00:00 14,2 10,8 8 4 NW 1021,6 10 0,0
23.05.2018 20:00:00 14,0 10,6 8 4 SW 1021,8 10 0,0
23.05.2018 19:00:00 15,2 10,8 8 4 WSW 1021,7 10 0,0
23.05.2018 18:00:00 16,0 11,1 9 5 WSW 1021,8 10 0,0
23.05.2018 17:00:00 18,2 12,0 5 3 W 1022,0 10 0,0
23.05.2018 16:00:00 18,1 11,2 9 5 E 1022,4 10 0,0
23.05.2018 15:00:00 17,4 10,1 15 8 ENE 1022,5 18 0,0
23.05.2018 14:00:00 18,2 10,9 16 9 ENE 1022,6 20 0,0
23.05.2018 13:00:00 17,6 9,8 16 9 E 1022,8 20 0,0
23.05.2018 12:00:00 18,5 10,4 16 9 E 1022,8 10 0,0
23.05.2018 11:00:00 18,3 9,1 13 7 E 1022,6 20 0,0
23.05.2018 10:00:00 17,9 10,2 9 5 E 1022,4 20 0,0
23.05.2018 09:00:00 16,6 10,4 15 8 ENE 1022,2 20 0,0
23.05.2018 08:00:00 15,3 10,8 15 8 ENE 1022,1 10 0,0
23.05.2018 07:00:00 13,2 10,2 16 9 ENE 1021,8 10 0,0
23.05.2018 06:00:00 11,1 9,1 16 9 NE 1021,3 20 0,0
23.05.2018 05:00:00 10,8 8,9 18 10 ENE 1021,0 20 0,0
23.05.2018 04:00:00 11,5 9,2 16 9 NE 1020,9 10 0,0
23.05.2018 03:00:00 11,8 9,2 15 8 NE 1021,1 10 0,0
23.05.2018 02:00:00 10,7 9,4 11 6 N 1021,2 14 0,0
23.05.2018 01:00:00 11,7 9,3 11 6 N 1021,1 10 0,0
23.05.2018 00:00:00 11,9 9,7 11 6 N 1021,0 10 0,0
22.05.2018 23:00:00 11,7 9,7 9 5 NNW 1020,8 10 0,0
22.05.2018 22:00:00 13,5 8,1 13 7 N 1020,4 18 0,0
22.05.2018 21:00:00 13,5 9,8 18 10 N 1019,8 10 0,0
22.05.2018 20:00:00 15,2 10,2 11 6 N 1019,2 14 0,0
22.05.2018 19:00:00 16,1 10,2 18 10 NNW 1018,9 10 0,0
22.05.2018 18:00:00 15,3 10,1 24 13 NNW 1019,0 10 0,0
22.05.2018 17:00:00 16,8 10,6 18 10 NNW 1019,0 10 0,0
22.05.2018 16:00:00 17,1 11,2 22 12 NNW 1018,7 18 0,0
22.05.2018 15:00:00 18,8 11,9 18 10 NW 1018,4 10 0,0
22.05.2018 14:00:00 19,8 12,3 11 6 NW 1018,2 10 0,0
22.05.2018 13:00:00 19,1 12,0 11 6 N 1018,3 10 0,0
22.05.2018 12:00:00 17,2 11,9 16 9 N 1018,3 10 0,0
22.05.2018 11:00:00 15,0 11,1 15 8 N 1018,1 14 0,0
22.05.2018 10:00:00 14,3 10,6 26 14 N 1017,8 10 0,0
22.05.2018 09:00:00 12,8 10,2 18 10 N 1017,8 10 0,0
22.05.2018 08:00:00 11,7 9,9 22 12 N 1017,7 10 0,0
22.05.2018 07:00:00 11,3 9,7 26 14 N 1017,4 10 0,0
22.05.2018 06:00:00 11,4 9,7 18 10 N 1016,8 10 0,0
22.05.2018 05:00:00 11,3 9,8 18 10 N 1016,6 8 0,0
22.05.2018 04:00:00 11,4 9,8 22 12 NNW 1016,5 14 0,0
22.05.2018 03:00:00 11,6 9,8 24 13 N 1016,7 10 0,0
22.05.2018 02:00:00 11,8 9,5 16 9 N 1016,8 12 0,0
22.05.2018 01:00:00 12,2 8,4 13 7 NNW 1016,9 20 0,0
22.05.2018 00:00:00 12,7 6,1 16 9 N 1017,0 10 0,0
21.05.2018 23:00:00 13,3 4,7 21 11 N 1016,6 10 0,0
21.05.2018 22:00:00 13,2 6,8 22 12 NNE 1016,7 20 0,0
21.05.2018 21:00:00 14,5 6,4 21 11 N 1016,2 18 0,0
21.05.2018 20:00:00 15,8 7,6 24 13 N 1016,1 10 0,0
21.05.2018 19:00:00 16,9 9,0 21 11 N 1016,1 10 0,0
21.05.2018 18:00:00 17,9 9,0 26 14 NNE 1015,9 10 0,0
21.05.2018 17:00:00 19,2 8,3 18 10 N 1015,6 10 0,0
21.05.2018 16:00:00 18,7 8,7 18 10 N 1015,9 10 0,0
21.05.2018 15:00:00 19,1 8,7 9 5 E 1016,1 9 0,0
21.05.2018 14:00:00 18,5 8,7 16 9 ENE 1016,0 8 0,0
21.05.2018 13:00:00 16,7 8,0 18 10 E 1016,1 8 0,0
21.05.2018 12:00:00 16,2 9,5 21 11 E 1016,2 8 0,0
21.05.2018 11:00:00 15,2 9,5 22 12 E 1016,3 8 0,0
21.05.2018 10:00:00 14,3 9,1 18 10 E 1016,4 8 0,0
21.05.2018 09:00:00 12,8 8,1 18 10 ENE 1016,4 8 0,0
21.05.2018 08:00:00 11,5 8,3 15 8 NE 1016,5 6 0,0
21.05.2018 07:00:00 9,8 8,1 18 10 ENE 1016,3 5 0,0
21.05.2018 06:00:00 9,0 7,8 18 10 NE 1016,4 3,5 0,0
21.05.2018 05:00:00 9,0 8,3 18 10 ENE 1016,5 3,0 0,0
21.05.2018 04:00:00 9,2 8,8 18 10 ENE 1016,9 0,8 0,0
21.05.2018 03:00:00 9,5 8,9 18 10 ENE 1017,1 0,8 0,0
21.05.2018 02:00:00 9,8 9,1 21 11 ENE 1017,8 4,1 0,0
21.05.2018 01:00:00 10,3 9,6 29 16 ENE 1018,5 4,5 0,0
21.05.2018 00:00:00 10,3 9,9 24 13 E 1018,7 0,8 0,0
20.05.2018 23:00:00 10,3 9,8 24 13 ENE 1019,0 1,9 0,0
20.05.2018 22:00:00 10,4 9,6 24 13 E 1019,1 4,2 0,0
20.05.2018 21:00:00 10,3 9,3 26 14 E 1018,9 5 0,0
20.05.2018 20:00:00 10,7 9,4 18 10 E 1019,1 5 0,0
20.05.2018 19:00:00 11,4 9,8 24 13 E 1019,2 5 0,0
20.05.2018 18:00:00 11,6 9,9 22 12 E 1019,5 4,9 0,0
20.05.2018 17:00:00 12,3 10,2 28 15 E 1019,9 6 0,0
20.05.2018 16:00:00 12,3 10,1 28 15 E 1020,3 3,6 0,0
20.05.2018 15:00:00 13,3 10,2 28 15 E 1020,8 10 0,0
20.05.2018 14:00:00 15,7 9,7 29 16 E 1021,0 22 0,0
20.05.2018 13:00:00 15,4 8,9 28 15 E 1021,3 22 0,0
20.05.2018 12:00:00 15,3 8,7 26 14 E 1021,5 10 0,0
20.05.2018 11:00:00 15,5 6,0 21 11 E 1021,6 10 0,0
20.05.2018 10:00:00 14,8 8,5 16 9 ESE 1022,0 26 0,0
20.05.2018 09:00:00 13,2 9,4 18 10 ESE 1021,9 20 0,0
20.05.2018 08:00:00 11,9 9,8 13 7 E 1021,8 11 0,0
20.05.2018 07:00:00 9,4 8,2 22 12 ESE 1021,7 11 0,0
20.05.2018 06:00:00 7,1 6,7 24 13 ESE 1021,6 4,0 0,0
20.05.2018 05:00:00 6,3 5,9 16 9 E 1021,9 0,1 0,0
20.05.2018 04:00:00 6,1 5,7 15 8 E 1022,2 3,9 0,0
20.05.2018 03:00:00 6,3 5,7 15 8 ESE 1022,4 5 0,0
20.05.2018 02:00:00 6,7 5,7 15 8 ESE 1022,5 7 0,0
20.05.2018 01:00:00 8,4 6,5 9 5 E 1022,8 10 0,0
20.05.2018 00:00:00 9,0 6,9 8 4 E 1023,0 16 0,0
19.05.2018 23:00:00 9,4 6,9 9 5 E 1022,8 10 0,0
19.05.2018 22:00:00 11,1 6,5 8 4 E 1022,9 10 0,0
19.05.2018 21:00:00 12,6 7,7 0 0 N 1022,8 10 0,0
19.05.2018 20:00:00 13,7 6,9 5 3 WSW 1022,9 10 0,0
19.05.2018 19:00:00 14,6 7,5 9 5 WSW 1022,9 26 0,0
19.05.2018 18:00:00 14,9 6,7 13 7 SW 1023,1 10 0,0
19.05.2018 17:00:00 14,3 4,9 16 9 SSW 1023,4 30 0,0
19.05.2018 16:00:00 15,1 6,1 16 9 SW 1023,5 10 0,0
19.05.2018 15:00:00 15,5 6,0 15 8 SW 1023,7 10 0,0
19.05.2018 14:00:00 15,8 7,8 16 9 SW 1024,0 10 0,0
19.05.2018 13:00:00 15,3 7,5 15 8 SW 1024,2 10 0,0
19.05.2018 12:00:00 15,0 6,8 11 6 SW 1024,3 10 0,0
19.05.2018 11:00:00 14,9 7,3 11 6 SW 1024,4 10 0,0
19.05.2018 10:00:00 15,2 6,9 5 3 SE 1024,5 10 0,0
19.05.2018 09:00:00 13,4 4,7 8 4 ENE 1024,5 10 0,0
19.05.2018 08:00:00 11,5 3,5 9 5 ENE 1024,3 25 0,0
19.05.2018 07:00:00 8,4 4,4 13 7 ENE 1024,2 10 0,0
19.05.2018 06:00:00 6,7 2,1 13 7 ENE 1024,3 10 0,0
19.05.2018 05:00:00 6,7 3,4 9 5 NE 1024,3 10 0,0
19.05.2018 04:00:00 7,0 3,9 11 6 NE 1024,3 21 0,0
19.05.2018 03:00:00 7,3 4,0 13 7 NE 1024,5 10 0,0
19.05.2018 02:00:00 8,0 6,2 15 8 NE 1024,6 15 0,0
19.05.2018 01:00:00 7,9 6,4 13 7 NNE 1025,1 10 0,0
19.05.2018 00:00:00 9,0 6,9 8 4 NNE 1025,1 10 0,0
18.05.2018 23:00:00 9,5 6,6 4 2 NNE 1025,2 10 0,0
18.05.2018 22:00:00 10,1 7,0 8 4 NNE 1025,3 21 0,0
18.05.2018 21:00:00 10,7 8,7 4 2 W 1025,3 15 0,0
18.05.2018 20:00:00 11,8 9,0 8 4 W 1025,2 10 0,0
18.05.2018 19:00:00 12,2 9,2 11 6 SW 1025,2 17 0,0
18.05.2018 18:00:00 12,6 9,1 13 7 SW 1025,4 10 0,0
18.05.2018 17:00:00 14,0 9,8 13 7 W 1025,1 17 0,0
18.05.2018 16:00:00 15,8 8,4 16 9 E 1025,1 20 0,0
18.05.2018 15:00:00 15,3 8,8 13 7 ENE 1025,4 10 0,0
18.05.2018 14:00:00 15,1 7,7 11 6 E 1025,9 16 0,0
18.05.2018 13:00:00 13,7 8,7 15 8 ENE 1026,0 10 0,0
18.05.2018 12:00:00 14,3 9,9 13 7 ENE 1026,1 16 0,0
18.05.2018 11:00:00 13,0 8,8 13 7 E 1026,0 10 0,0
18.05.2018 10:00:00 12,7 9,0 15 8 E 1025,9 10 0,0
18.05.2018 09:00:00 11,8 8,6 13 7 E 1026,1 10 0,0
18.05.2018 08:00:00 10,4 7,6 9 5 NE 1026,3 10 0,0
18.05.2018 07:00:00 8,7 5,6 11 6 ENE 1026,0 10 0,0
18.05.2018 06:00:00 6,7 4,0 11 6 ENE 1025,8 10 0,0
18.05.2018 05:00:00 6,9 4,0 11 6 ENE 1025,8 10 0,0
18.05.2018 04:00:00 8,1 4,6 11 6 ENE 1025,6 25 0,0
18.05.2018 03:00:00 7,3 3,6 9 5 NE 1025,7 10 0,0
18.05.2018 02:00:00 6,6 3,3 9 5 NE 1025,8 10 0,0
18.05.2018 01:00:00 7,0 3,0 9 5 NE 1026,0 10 0,0
18.05.2018 00:00:00 7,8 3,3 9 5 NNE 1026,2 25 0,0
17.05.2018 23:00:00 8,2 3,0 9 5 NE 1026,3 10 0,0
17.05.2018 22:00:00 8,3 3,8 11 6 ENE 1026,0 10 0,0
17.05.2018 21:00:00 10,2 4,0 9 5 ENE 1025,8 10 0,0

tt = Température de l'air
td = dewpoint
ff = Vitesse du vent
dd = Direction du vent
ppp = reduced air pressure
vv = visibility
rr = Quantités de précipitations

stations d'obs. à proximité